NSS-10

Last updated on Sun Apr 12 2026 00:02:51 GMT+0000 (Coordinated Universal Time)

1 28526U 05003A 26101.32199654 -.00000245 00000+0 00000+0 0 9990 2 28526 6.2819 71.2485 0003192 312.0019 254.7632 1.00272882 52487
UTC large
Height (km)
Speed (km/s)
/
Latitude / Longitude
Inclination (degrees)
Orbital Period (minutes)
Azimuth
Elevation
Range (km)
Doppler Factor

Next 0 passes for location: London (51.5072 / 0.1276)

Sorry there are no passes over London.
NSS-10